Regional Weather Roundup
Issued by NWS

Home | Current Version | Previous Version | Graphics & Text | Print | Product List | Glossary Off
Versions: 1 2 3 4 5 6 7 8 9 10 11 12 13 14 15 16 17 18 19 20 21 22 23 24 25 26 27 28 29 30 31 32 33 34 35 36 37 38 39 40 41 42 43 44 45 46 47 48 49 50

550
ASUS43 KTOP 231359
RWRKS

WEATHER ROUNDUP FOR KANSAS
NATIONAL WEATHER SERVICE GOODLAND KS
900 AM CDT MON APR 23 2018

NOTE:  "FAIR" INDICATES FEW OR NO CLOUDS BELOW 12,000 FEET WITH NO
SIGNIFICANT WEATHER AND/OR OBSTRUCTIONS TO VISIBILITY.

KSZ001>006-013>018-027>032-041>047-231500-
NORTHWEST KANSAS

CITY           SKY/WX    TMP DP  RH WIND       PRES   REMARKS
GOODLAND       SUNNY     46  39  76 S7        30.17R
HAYS           SUNNY     54  41  61 N8        30.19R
HILL CITY      SUNNY     48  42  80 CALM      30.19S
RUSSELL        SUNNY     54  43  66 N10       30.17S
$$

KSZ061>065-074>080-084>089-231500-
SOUTHWEST KANSAS

CITY           SKY/WX    TMP DP  RH WIND       PRES   REMARKS
DODGE CITY     SUNNY     51  41  68 NW5       30.18R
GARDEN CITY    SUNNY     47  41  80 CALM      30.18S
GREAT BEND     SUNNY     52  43  71 N5        30.19R
LIBERAL        SUNNY     46  42  86 CALM      30.20S
$$

KSZ066>073-081>083-090>101-231500-
SOUTHEAST KANSAS

CITY           SKY/WX    TMP DP  RH WIND       PRES   REMARKS
CHANUTE        CLOUDY    57  40  52 N10       30.10R
COFFEYVILLE    SUNNY     58  45  62 N16       30.08R
HUTCHINSON     SUNNY     56  43  61 NE6       30.16R
MEDICINE LODGE   N/A     57  43  59 N10       30.15F
NEWTON         SUNNY     54  43  66 NE10      30.15S
PARSONS        MOSUNNY   58  43  57 NE9       30.10R
WICHITA INTL   MOSUNNY   55  44  66 N8        30.14S
WICHITA JABRA  CLOUDY    54  44  69 N8        30.14R
WINFIELD       SUNNY     56  46  69 NE10      30.14R
$$

KSZ007>012-019>026-033>040-048>060-102>105-231500-
NORTHEAST KANSAS

CITY           SKY/WX    TMP DP  RH WIND       PRES   REMARKS
CONCORDIA      SUNNY     52  40  63 E3        30.17S
EMPORIA        CLOUDY    54  37  52 N6        30.13R
LAWRENCE       MOSUNNY   59  33  37 N6        30.12S
MANHATTAN      SUNNY     55  39  54 NE6       30.16S
OLATHE IND     PTSUNNY   59  34  39 N9        30.12R
OLATHE EXE     SUNNY     58  34  40 N9        30.11R
SALINA         SUNNY     53  44  71 N3        30.17S
TOPEKA BILLARD CLOUDY    54  36  50 N5        30.14S
TOPEKA FORBES  CLOUDY    58  35  42 N8        30.13S
$$




USA.gov is the U.S. government's official web portal to all federal, state and local government web resources and services.